Other Public Products
Issued by NWS Charleston, SC

Current Version | Previous Version | Graphics & Text | Print | Product List | Glossary On
Versions: 1 2 3 4 5 6 7 8 9 10 11 12 13 14 15 16 17 18 19 20 21 22 23 24 25 26 27 28 29 30 31 32 33 34 35 36 37 38 39 40 41 42 43 44 45 46 47 48 49 50
241
FPUS82 KCHS 211227
OPUCHS

TEST...KCHS/KSAV Gateway Observations...TEST
National Weather Service Charleston SC
800 AM EDT FRI JUL 21 2017

NOTE: "fair" indicates few or no clouds below 12,000 feet with no
significant weather and/or obstructions to visibility.

SCZ050-WAZ558-NCZ071-TXZ119-213-PAZ071-DCZ001-FLZ074-172-MI076-
NYZ176-178-MAZ016-IL014-TNZ027-NJZ106-GAZ044-MD014-211300-

...Gateway Observations for Charleston International...

CITY           SKY/WX    TMP DP  RH WIND       PRES   REMARKS
Chas Airport   MOSUNNY   77  70  79 SW6       30.05R
6HR MIN TEMP:  72; 6HR MAX TEMP:  77;

Seattle        MOCLDY    56  53  90 S3        30.14S
6HR MIN TEMP:  56; 6HR MAX TEMP:  64;

Charlotte      MOSUNNY   79  72  79 CALM      30.05R
6HR MIN TEMP:  72; 6HR MAX TEMP:  79;

Dallas DFW     PTCLDY    82  73  74 S8        30.00R
6HR MIN TEMP:  81; 6HR MAX TEMP:  86;

Dallas Love    PTCLDY    83  72  69 S8        30.01R
6HR MIN TEMP:  82; 6HR MAX TEMP:  88;

Philladelphia  PTSUNNY   82  69  64 N9        29.93R
6HR MIN TEMP:  79; 6HR MAX TEMP:  83;

Wash National  PTSUNNY   86  71  60 N8        29.96R HX  91
6HR MIN TEMP:  81; 6HR MAX TEMP:  87;

Baltimore      MOSUNNY   83  71  67 W7        29.95R
6HR MIN TEMP:  75; 6HR MAX TEMP:  83;

Miami          PTSUNNY   84  77  79 CALM      30.06R HX  94
6HR MIN TEMP:  80; 6HR MAX TEMP:  84;

Detroit        CLOUDY    75  70  84 N5        30.00R
6HR MIN TEMP:  72; 6HR MAX TEMP:  76;

Newark         MOSUNNY   80  69  69 W7        29.91R
6HR MIN TEMP:  75; 6HR MAX TEMP:  80;

Laguardia      MOSUNNY   80  71  74 NW6       29.90R
6HR MIN TEMP:  77; 6HR MAX TEMP:  80;

J F K          MOSUNNY   83  70  64 NW8       29.91R
6HR MIN TEMP:  79; 6HR MAX TEMP:  83;

Boston Logan   MOSUNNY   77  60  55 W7        29.85S
6HR MIN TEMP:  73; 6HR MAX TEMP:  78;

Ft. Lauderdale PTSUNNY   84  80  88 CALM      30.05  HX  97
6HR MIN TEMP:  80; 6HR MAX TEMP:  84;

Chicago O`Hare CLOUDY    75  68  78 NE9       29.96F
6HR MIN TEMP:  73; 6HR MAX TEMP:  77;

Chicago Midway CLOUDY    77  71  82 NE7       29.96F
6HR MIN TEMP:  75; 6HR MAX TEMP:  78;

Houston Bush   PTCLDY    77  74  90 CALM      30.03R
6HR MIN TEMP:  76; 6HR MAX TEMP:  82;

Houston Hobby  PTCLDY    80  74  81 CALM      30.02R
6HR MIN TEMP:  79; 6HR MAX TEMP:  83;

Nashville      CLOUDY    77  73  87 CALM      30.07R FOG
6HR MIN TEMP:  74; 6HR MAX TEMP:  78;

Atlanta        MOSUNNY   78  74  87 NW7       30.06R
6HR MIN TEMP:  76; 6HR MAX TEMP:  79;


$$

GAZ044-118-TXZ119-213-NCZ071-DCZ001-MDZ014-506-PAZ021-071-NJZ106-
NYZ176-178-MAZ106-OHZ011-021-055-MIZ076-KYZ091-ILZ014-INZ047-
MNZ060-ONZ431-211300-

...Gateway Observations for Savannah International...

CITY           SKY/WX    TMP DP  RH WIND       PRES   REMARKS
Savannah Arpt  SUNNY     75  70  84 S3        30.05R
Atlanta        MOSUNNY   78  74  87 NW7       30.06R
6HR MIN TEMP:  76; 6HR MAX TEMP:  79;

Charlotte      MOSUNNY   79  72  79 CALM      30.05R
6HR MIN TEMP:  72; 6HR MAX TEMP:  79;

Dallas DFW     PTCLDY    82  73  74 S8        30.00R
6HR MIN TEMP:  81; 6HR MAX TEMP:  86;

Houston Bush   PTCLDY    77  74  90 CALM      30.03R
6HR MIN TEMP:  76; 6HR MAX TEMP:  82;

Wash National  PTSUNNY   86  71  60 N8        29.96R HX  91
6HR MIN TEMP:  81; 6HR MAX TEMP:  87;

Wash Dulles    PTSUNNY   83  70  64 NW7       29.98R
6HR MIN TEMP:  73; 6HR MAX TEMP:  83;

Baltimore      MOSUNNY   83  71  67 W7        29.95R
6HR MIN TEMP:  75; 6HR MAX TEMP:  83;

Philadelphia   PTSUNNY   82  69  64 N9        29.93R
6HR MIN TEMP:  79; 6HR MAX TEMP:  83;

Newark         MOSUNNY   80  69  69 W7        29.91R
6HR MIN TEMP:  75; 6HR MAX TEMP:  80;

Laguardia      MOSUNNY   80  71  74 NW6       29.90R
6HR MIN TEMP:  77; 6HR MAX TEMP:  80;

J F K          MOSUNNY   83  70  64 NW8       29.91R
6HR MIN TEMP:  79; 6HR MAX TEMP:  83;

Boston         MOSUNNY   77  60  55 W7        29.85S
6HR MIN TEMP:  73; 6HR MAX TEMP:  78;

Pittsburg      PTSUNNY   74  72  93 CALM      30.00S
6HR MIN TEMP:  72; 6HR MAX TEMP:  75;

Akron          PTSUNNY   78  70  76 CALM      30.01R
6HR MIN TEMP:  71; 6HR MAX TEMP:  76;

Cleveland      PTSUNNY   77  72  84 CALM      30.00R
6HR MIN TEMP:  73; 6HR MAX TEMP:  77;

Cincinnati     TSTM      73  73 100 NW21G36   30.08R FOG
6HR MIN TEMP:  77; 6HR MAX TEMP:  80;

Columbus       CLOUDY    77  75  92 SW5       29.99R
Detroit        CLOUDY    75  70  84 N5        30.00R
6HR MIN TEMP:  72; 6HR MAX TEMP:  76;

Chicago O`Hare CLOUDY    75  68  78 NE9       29.96F
6HR MIN TEMP:  73; 6HR MAX TEMP:  77;

Minneapolis    MOSUNNY   72  66  81 SE12      29.90R
6HR MIN TEMP:  69; 6HR MAX TEMP:  75;

Indianapolis   TSTM      73  69  87 E12       30.02S
6HR MIN TEMP:  73; 6HR MAX TEMP:  80; 6HR PCP:  0.09;

Toronto Canada MOSUNNY   73  66  78 W3        29.94R

$$




USA.gov is the U.S. government's official web portal to all federal, state and local government web resources and services.